Wind_Speed
71 68 61 57 63 68 68 70 68 65 69 64 59 60 64 72 82 92 98 102 105 110 111 108 108 105 103 102 104 100 98 100 98 98 96 92 89 83 78 75 78 80 80 75
78 66 55 69 68 70 70 71 73 73 77 72 65 59 61 69 64 76 81 83 91 96 100 109 108 109 106 105 103 102 103 104 104 101 100 97 94 90 87 85 81 84 85 83
74 67 69 73 74 71 71 71 70 73 79 77 65 60 57 68 66 63 67 70 74 87 97 98 101 108 109 109 108 107 105 106 106 105 103 101 97 96 94 91 88 88 90 90
79 74 70 73 72 71 70 72 75 75 82 75 69 58 61 60 64 66 67 64 61 67 82 96 103 103 108 113 111 109 109 109 107 106 103 94 95 93 94 91 91 92 84 86
74 79 70 70 69 75 70 73 75 83 83 75 69 61 60 56 57 62 64 64 65 64 62 72 86 99 103 111 112 112 111 112 110 107 106 100 91 85 89 92 92 93 91 88
89 87 88 74 84 82 78 81 81 87 81 69 63 61 59 54 58 58 58 62 64 66 62 64 78 85 94 101 105 108 113 114 113 110 109 108 105 104 99 97 97 96 94 94
89 88 86 85 88 86 82 85 86 85 73 59 64 60 63 61 57 60 60 61 62 61 60 55 61 71 72 83 98 104 104 106 110 113 115 109 106 108 109 108 106 102 99 98
86 91 90 84 84 81 78 82 82 72 64 62 67 60 61 63 60 63 63 62 60 58 56 48 50 57 63 68 79 92 100 100 102 105 108 114 117 113 108 107 106 108 107 106
74 82 91 87 84 86 80 80 73 73 67 65 68 62 62 59 61 65 62 60 59 58 50 43 44 48 54 59 67 77 88 96 99 98 102 108 109 108 110 112 112 112 109 110
61 74 81 87 90 89 81 83 83 71 69 68 69 65 61 60 65 65 60 58 58 56 50 45 45 41 44 49 56 66 75 82 91 97 99 98 100 104 107 108 112 114 116 116
51 60 71 81 86 86 83 82 79 75 75 70 67 62 60 64 65 63 58 57 54 53 48 45 45 43 42 37 43 53 60 69 75 81 89 97 100 100 101 103 106 108 112 115
44 52 60 66 73 80 80 81 77 73 68 64 63 62 61 62 60 57 60 58 53 53 49 48 45 43 42 41 44 41 44 49 56 64 73 81 88 95 100 105 106 108 107 107
40 47 53 59 69 75 73 72 72 71 68 65 63 60 59 57 55 59 62 57 54 53 49 47 45 44 42 39 41 41 42 45 49 54 59 65 72 81 85 88 96 102 106 107
34 37 40 44 48 54 61 63 64 63 62 61 59 58 55 54 57 60 57 53 52 52 48 46 41 39 35 37 39 42 43 44 47 51 54 61 65 65 69 76 81 85 88 90
31 35 37 42 47 48 51 52 53 55 57 56 56 54 53 58 57 56 54 52 51 49 47 41 33 31 33 35 38 36 38 38 39 41 48 51 50 48 53 59 61 63 65 68
28 34 39 41 43 47 50 51 50 52 53 52 52 51 54 56 53 51 52 51 52 49 43 37 28 29 33 32 30 31 35 41 43 36 42 48 50 47 45 43 43 43 43 44
28 26 32 36 41 45 48 50 52 51 48 46 47 51 54 52 51 53 52 50 46 42 36 26 28 31 31 27 31 36 37 29 35 33 39 36 38 36 38 36 34 32 32 31
27 27 26 27 32 35 38 41 42 44 45 47 49 52 52 53 54 52 41 41 39 37 32 31 29 29 31 29 26 23 24 27 27 28 31 31 32 35 35 35 37 38 32 27
26 23 20 21 23 32 35 37 38 40 44 47 50 51 52 51 49 48 43 40 38 34 33 30 32 30 29 31 27 27 29 30 35 33 32 33 35 37 38 39 43 43 38 33
18 17 23 24 23 25 33 37 40 43 42 43 45 44 44 46 47 46 38 38 37 35 32 32 30 30 31 32 31 32 36 36 36 35 35 38 39 40 42 46 47 46 44 40
27 24 25 25 24 29 33 37 37 37 41 44 45 45 45 45 41 38 37 38 37 33 35 33 34 36 37 35 34 34 34 35 36 39 40 41 42 44 42 41 43 43 45 44
30 30 26 28 32 31 29 31 32 33 34 37 39 40 40 35 36 36 35 34 33 36 36 35 36 37 35 35 36 38 39 41 41 41 42 40 41 39 36 36 39 39 37 39
24 27 30 28 29 27 28 30 32 33 34 30 31 30 31 33 34 32 32 32 34 37 37 40 40 40 40 42 43 44 42 39 38 37 36 38 37 38 38 38 40 36 36 32
21 27 26 28 27 27 29 30 30 27 27 28 29 29 30 31 31 31 33 36 37 38 40 41 43 46 47 48 48 47 45 44 43 43 43 43 41 40 38 38 35 30 27 20
17 18 25 33 30 25 22 23 27 24 23 28 22 25 27 29 30 32 33 35 35 36 40 43 45 44 44 48 51 53 52 51 53 52 50 47 43 39 35 33 28 20 15 12
26 22 21 23 33 26 25 28 27 31 28 26 25 26 26 27 29 31 33 33 34 36 39 40 43 47 49 52 54 58 51 43 50 55 52 47 42 39 33 28 18 20 14 8
Wind_Direction
247 235 228 236 232 232 232 233 236 241 245 242 238 235 243 245 242 243 244 242 244 244 242 241 243 244 244 244 244 244 242 246 248 251 255 257 257 256 252 253 251 247 251 252
238 232 232 229 232 234 235 235 236 239 247 248 241 237 239 246 247 246 245 247 247 246 244 242 241 245 245 244 246 244 244 243 245 248 252 254 254 256 253 255 255 252 253 254
241 232 225 225 228 230 236 237 238 239 243 244 240 239 242 243 245 249 251 249 249 247 244 238 239 242 243 245 244 244 247 249 248 248 250 252 253 253 255 256 254 254 255 257
233 232 225 225 225 228 234 239 238 238 240 239 239 238 241 243 244 245 249 251 255 257 253 248 240 237 240 241 243 243 244 245 249 250 252 251 251 253 254 254 253 252 253 256
232 234 225 225 227 229 230 237 238 239 238 236 236 238 244 242 249 248 250 251 253 257 255 253 246 242 238 240 242 244 244 246 248 248 251 250 247 250 249 251 254 251 251 254
230 228 224 218 224 226 225 232 234 238 237 237 238 237 244 246 249 253 253 252 252 256 258 257 256 251 244 239 239 241 243 245 248 250 252 252 253 253 252 252 253 252 250 253
232 230 229 220 221 221 222 229 233 235 236 236 240 236 240 243 248 252 257 252 251 257 261 260 260 254 251 247 241 240 241 243 246 249 250 252 254 255 256 257 256 254 250 251
224 225 227 223 222 223 226 231 235 239 238 239 241 237 239 243 249 251 251 251 251 255 261 259 260 259 253 245 241 241 243 242 243 246 249 251 252 254 256 258 259 260 260 258
222 222 222 221 225 224 224 229 234 236 233 233 237 237 237 243 247 245 247 248 249 252 256 255 255 258 256 250 243 240 240 243 244 245 246 247 250 253 255 256 257 258 260 260
219 217 218 217 220 223 225 228 232 232 232 232 236 237 238 240 244 242 243 241 243 248 252 251 256 259 255 253 251 248 245 244 244 245 248 251 252 253 254 255 257 259 258 259
214 215 215 216 218 221 223 225 227 224 227 231 236 236 236 238 242 240 240 237 240 247 253 253 258 256 258 253 255 256 255 254 254 251 250 250 252 254 257 258 259 259 260 260
208 211 211 212 214 218 219 222 224 226 230 231 232 232 233 235 235 235 233 233 237 243 246 251 253 250 252 254 257 259 260 259 256 256 257 258 258 259 260 261 261 262 261 262
203 205 209 209 210 212 212 217 220 223 225 226 230 233 228 227 227 225 226 230 235 241 245 250 251 247 250 254 259 260 258 260 260 259 258 259 260 260 263 265 266 267 266 264
194 195 200 201 207 212 213 215 218 222 224 226 225 222 220 218 216 220 224 230 235 239 243 249 246 250 248 254 253 253 258 259 260 260 262 262 264 266 266 267 268 271 273 271
180 182 185 190 196 196 199 206 212 216 216 215 215 213 211 210 215 219 224 228 233 236 243 244 245 251 254 251 250 253 255 259 261 263 266 266 265 263 270 276 280 281 281 280
168 172 185 189 191 190 191 194 200 205 210 212 210 202 205 211 216 221 225 232 238 239 242 235 244 255 257 256 254 259 266 265 266 266 257 263 261 270 280 284 287 290 294 293
165 182 193 193 193 195 197 198 201 202 203 203 201 198 205 210 217 222 227 236 238 236 235 229 245 255 251 263 264 260 265 254 254 256 254 262 264 275 278 283 288 295 300 306
171 180 187 189 192 193 197 200 200 200 201 200 197 200 207 213 218 224 233 234 234 234 223 234 254 251 255 269 249 235 244 247 254 257 259 262 265 268 275 282 287 294 294 302
170 168 163 172 177 186 190 191 193 198 200 201 202 206 211 217 222 227 237 229 234 224 226 240 251 250 260 267 238 241 253 260 269 265 269 266 270 275 278 283 281 282 289 295
160 160 160 159 167 175 185 189 194 199 202 205 209 211 215 220 231 234 226 230 231 229 234 249 247 252 259 259 253 260 268 268 264 265 266 268 269 275 282 282 280 279 281 286
141 136 144 146 166 180 188 197 202 207 213 215 216 220 223 222 221 221 223 228 229 234 243 249 249 251 256 257 257 260 265 266 266 267 272 275 278 280 280 280 280 281 277 277
137 139 146 156 162 169 174 183 185 194 201 204 204 207 209 213 217 218 223 227 233 242 250 250 255 258 261 265 269 270 269 268 268 271 273 275 275 276 277 280 279 278 279 277
152 154 154 167 164 164 164 172 180 185 190 192 196 195 198 203 211 218 222 229 239 247 253 258 265 274 275 276 277 277 274 271 268 268 266 269 271 271 272 276 276 278 280 278
175 160 160 171 165 169 172 174 189 198 186 192 194 199 201 205 213 223 234 241 245 247 251 256 261 265 270 272 272 273 273 272 270 266 266 268 268 274 275 276 278 279 274 262
154 184 167 178 169 170 186 186 179 195 190 202 207 213 218 224 229 235 240 241 243 246 250 255 261 265 269 271 272 270 271 272 271 267 264 267 268 274 274 272 273 259 227 230
168 205 188 186 185 184 182 193 190 191 206 206 211 213 221 226 231 238 243 248 252 252 253 254 259 267 272 272 275 277 272 272 272 268 268 267 265 266 263 264 246 202 203 213
Height
10567 10579 10609 10621 10618 10620 10629 10636 10643 10647 10646 10656 10666 10674 10673 10669 10682 10687 10694 10705 10715 10729 10743 10759 10764 10773 10780 10789 10794 10800 10802 10803 10809 10813 10818 10824 10829 10834 10838 10842 10845 10842 10843 10846
10537 10571 10589 10586 10595 10602 10610 10620 10629 10633 10629 10637 10648 10658 10663 10658 10672 10675 10680 10691 10701 10711 10720 10736 10745 10756 10763 10768 10775 10782 10781 10785 10791 10800 10803 10808 10814 10819 10823 10825 10826 10825 10828 10832
10523 10544 10551 10559 10571 10584 10594 10603 10611 10615 10610 10619 10633 10645 10649 10651 10658 10665 10669 10674 10681 10688 10695 10708 10722 10734 10741 10750 10754 10759 10765 10770 10774 10780 10786 10791 10798 10802 10805 10809 10807 10808 10811 10816
10487 10508 10528 10541 10559 10569 10576 10583 10589 10593 10585 10604 10619 10634 10636 10641 10647 10653 10656 10661 10668 10674 10678 10687 10702 10710 10718 10723 10734 10739 10745 10749 10754 10760 10769 10775 10781 10784 10786 10788 10786 10791 10795 10797
10481 10482 10506 10523 10542 10542 10557 10560 10566 10561 10568 10588 10611 10623 10625 10633 10636 10638 10644 10648 10655 10660 10662 10664 10674 10685 10695 10702 10711 10723 10728 10732 10736 10741 10748 10752 10759 10763 10766 10766 10770 10773 10778 10779
10433 10451 10459 10497 10496 10510 10527 10531 10539 10537 10560 10586 10600 10613 10612 10623 10624 10627 10630 10632 10639 10643 10648 10652 10657 10665 10675 10685 10691 10698 10705 10715 10720 10724 10730 10736 10740 10744 10748 10748 10750 10754 10761 10761
10410 10431 10450 10467 10472 10488 10506 10510 10518 10528 10556 10586 10585 10600 10602 10609 10614 10615 10615 10617 10626 10633 10636 10641 10643 10648 10655 10664 10674 10679 10686 10696 10701 10706 10710 10715 10721 10725 10725 10725 10729 10731 10740 10743
10382 10400 10420 10450 10464 10485 10498 10502 10512 10535 10556 10570 10568 10586 10593 10596 10603 10601 10601 10605 10615 10623 10625 10627 10629 10632 10639 10645 10652 10661 10668 10674 10681 10689 10693 10695 10695 10701 10706 10709 10714 10712 10717 10723
10366 10387 10397 10425 10443 10458 10476 10485 10506 10515 10535 10546 10553 10571 10578 10585 10586 10587 10591 10597 10604 10611 10616 10616 10616 10618 10623 10628 10633 10640 10647 10654 10660 10669 10670 10669 10677 10683 10686 10689 10688 10690 10693 10696
10351 10365 10386 10405 10419 10434 10459 10471 10476 10504 10519 10532 10541 10555 10567 10572 10568 10574 10582 10588 10593 10597 10603 10606 10608 10608 10609 10613 10618 10624 10629 10638 10642 10646 10650 10657 10661 10662 10663 10664 10665 10671 10673 10674
10344 10358 10372 10385 10404 10424 10441 10454 10469 10486 10499 10518 10531 10543 10552 10554 10557 10567 10574 10580 10584 10588 10592 10596 10599 10598 10602 10605 10608 10612 10616 10622 10630 10635 10635 10636 10639 10642 10644 10646 10644 10644 10646 10651
10338 10350 10362 10381 10399 10410 10429 10441 10460 10476 10495 10509 10519 10528 10535 10540 10548 10558 10564 10569 10572 10577 10580 10584 10587 10590 10594 10598 10600 10604 10608 10610 10611 10612 10615 10621 10623 10623 10623 10621 10626 10624 10627 10629
10335 10345 10356 10371 10384 10393 10417 10434 10450 10463 10477 10493 10505 10516 10524 10532 10538 10546 10551 10556 10562 10568 10572 10575 10578 10581 10586 10588 10591 10592 10593 10594 10597 10599 10601 10602 10602 10603 10606 10605 10601 10601 10604 10609
10335 10347 10359 10374 10390 10405 10418 10430 10442 10455 10470 10483 10494 10502 10514 10521 10528 10534 10541 10548 10553 10558 10562 10566 10571 10574 10579 10581 10581 10580 10582 10584 10586 10587 10590 10589 10589 10591 10590 10588 10584 10582 10581 10581
10338 10348 10358 10367 10378 10394 10408 10422 10436 10449 10459 10471 10483 10493 10503 10511 10519 10527 10533 10539 10543 10549 10555 10561 10566 10569 10571 10572 10572 10574 10575 10576 10577 10579 10579 10577 10576 10577 10576 10575 10573 10569 10565 10559
10342 10349 10358 10367 10379 10391 10403 10414 10427 10438 10450 10463 10474 10486 10496 10505 10514 10521 10525 10531 10535 10543 10549 10556 10560 10562 10561 10562 10564 10565 10567 10568 10568 10568 10567 10565 10565 10567 10566 10564 10561 10557 10551 10545
10348 10354 10361 10371 10380 10390 10401 10414 10426 10436 10446 10457 10470 10482 10491 10499 10506 10510 10516 10522 10530 10537 10544 10550 10553 10553 10554 10554 10555 10557 10560 10558 10560 10559 10557 10556 10557 10557 10557 10554 10552 10550 10545 10541
10352 10358 10365 10374 10382 10393 10404 10415 10425 10435 10444 10454 10466 10477 10484 10490 10496 10503 10511 10518 10525 10531 10537 10540 10543 10544 10544 10545 10546 10547 10550 10550 10550 10548 10549 10548 10548 10549 10547 10544 10543 10541 10538 10534
10356 10363 10370 10377 10385 10393 10405 10415 10425 10435 10443 10453 10462 10471 10478 10486 10494 10500 10506 10512 10518 10524 10529 10533 10535 10536 10537 10537 10538 10539 10540 10541 10540 10539 10538 10538 10539 10540 10538 10536 10534 10532 10529 10526
10363 10369 10375 10381 10389 10397 10404 10413 10421 10430 10440 10449 10457 10468 10476 10481 10486 10493 10500 10506 10512 10517 10521 10524 10526 10527 10528 10528 10528 10529 10530 10530 10529 10530 10530 10530 10530 10529 10527 10525 10523 10521 10519 10517
10368 10373 10378 10383 10391 10398 10405 10414 10422 10432 10438 10445 10453 10461 10469 10472 10481 10489 10494 10500 10505 10509 10513 10516 10517 10517 10518 10519 10519 10520 10521 10521 10521 10521 10521 10520 10521 10519 10516 10514 10511 10509 10508 10507
10373 10380 10386 10390 10394 10400 10409 10416 10423 10427 10433 10441 10448 10456 10464 10473 10477 10483 10489 10494 10498 10501 10503 10505 10506 10507 10508 10510 10512 10512 10512 10512 10512 10511 10510 10510 10510 10508 10507 10505 10502 10500 10498 10497
10377 10383 10388 10394 10400 10404 10410 10417 10422 10427 10432 10442 10449 10455 10462 10468 10474 10479 10484 10489 10492 10495 10496 10496 10497 10499 10501 10501 10501 10500 10500 10499 10500 10499 10500 10500 10500 10499 10498 10496 10493 10493 10490 10489
10381 10387 10392 10398 10402 10407 10412 10418 10424 10430 10438 10441 10447 10454 10461 10466 10471 10475 10479 10483 10486 10488 10490 10491 10492 10492 10493 10493 10491 10489 10489 10489 10489 10488 10487 10487 10487 10488 10488 10484 10484 10484 10482 10482
10384 10388 10395 10401 10406 10411 10418 10422 10427 10431 10439 10443 10448 10453 10458 10463 10467 10470 10473 10475 10478 10480 10481 10483 10484 10484 10483 10481 10479 10478 10477 10477 10474 10472 10472 10473 10475 10476 10476 10474 10475 10475 10476 10477
10387 10389 10394 10401 10408 10412 10417 10424 10429 10433 10436 10441 10446 10450 10454 10457 10460 10463 10465 10467 10469 10471 10472 10473 10473 10473 10471 10468 10466 10461 10462 10462 10456 10455 10457 10459 10462 10463 10465 10465 10468 10470 10472 10472